Saint Paul Island, AK

5:56 PM AKDT on April 21, 2018 (GMT -0800)
Saint Paul Island

Weather History for PASN - June, 2013

Change the Weather History Date:

Saturday, June 22, 2013

  Actual Average Record
Temperature  
Mean Temperature 42 °F 44 °F  
Max Temperature 45 °F 48 °F 58 °F (2005)
Min Temperature 38 °F 40 °F 33 °F (1959)
Degree Days  
Heating Degree Days 23 21  
Month to date heating degree days 535 516  
Since 1 June heating degree days 535 516  
Since 1 July heating degree days 11493 10645  
Cooling Degree Days 0 0  
Month to date cooling degree days 0 0  
Year to date cooling degree days 0 0  
Since 1 June cooling degree days 0 0  
Moisture  
Dew Point 40 °F    
Average Humidity 100    
Maximum Humidity 100    
Minimum Humidity 93    
Precipitation  
Precipitation 0.05 in 0.05 in 0.42 in (1979)
Month to date precipitation 1.19 0.95  
Year to date precipitation 8.37 7.11  
Snow  
Snow 0.00 in 0.00 in - ()
Month to date snowfall 0.0 0.0  
Since 1 June snowfall 0.0 0.0  
Since 1 July snowfall 72.7 59.8  
Snow Depth 0.00 in    
Sea Level Pressure  
Sea Level Pressure 29.11 in    
Wind  
Wind Speed 14 mph (East)    
Max Wind Speed 18 mph    
Max Gust Speed 23 mph    
Visibility 2 miles    
Events Fog , Rain    
T = Trace of Precipitation, MM = Missing Value Source: NWS Daily Summary

Daily Weather History Graph

Daily Weather History Graph

Search for Another Location

Airport or City:

Astronomy

Jun. 22, 2013 Rise Set
Actual Time 6:24 AM AKDT 12:20 AM AKDT
Civil Twilight 5:15 AM AKDT 1:30 AM AKDT
Nautical Twilight 3:55 AM AKDT 2:50 AM AKDT
Astronomical Twilight Sun does not set Sun does not set
Moon 11:30 PM AKDT 6:08 AM AKDT
Length of Visible Light 20h 14m
Length of Day
17h 56m
Waxing Gibbous, 99% of the Moon is Illuminated
Jun 22
Waxing Gibbous
Jun 23
Full
Jun 29
Last Quarter
Jul 7
New
Jul 15
First Quarter

Hourly Weather History & Observations

Time (AKDT) Temp. Windchill Dew Point Humidity Pressure Visibility Wind Dir Wind Speed Gust Speed Precip Events Conditions
12:53 AM 39.0 °F 30.3 °F 39.0 °F 100% 29.07 in 1.8 mi SE 16.1 mph - 0.00 in   Overcast
1:23 AM 39.2 °F 31.2 °F 39.2 °F 100% 29.06 in 2.0 mi SE 13.8 mph - 0.01 in   Overcast
1:36 AM 39.2 °F 31.6 °F 39.2 °F 100% 29.06 in 1.8 mi SE 12.7 mph - 0.01 in   Overcast
1:53 AM 39.0 °F 30.3 °F 39.0 °F 100% 29.06 in 1.5 mi SE 16.1 mph - 0.01 in   Overcast
2:23 AM 39.2 °F 31.2 °F 39.2 °F 100% 29.06 in 0.8 mi SE 13.8 mph - N/A   Overcast
2:28 AM 39.2 °F 31.2 °F 39.2 °F 100% 29.06 in 1.0 mi SE 13.8 mph - N/A   Overcast
2:48 AM 39.2 °F 32.5 °F 39.2 °F 100% 29.06 in 2.5 mi SE 10.4 mph - N/A   Overcast
2:53 AM 39.0 °F 31.8 °F 39.0 °F 100% 29.07 in 3.0 mi SE 11.5 mph - N/A   Overcast
3:13 AM 39.2 °F 31.6 °F 39.2 °F 100% 29.05 in 4.0 mi SE 12.7 mph - N/A   Overcast
3:33 AM 39.2 °F 30.5 °F 39.2 °F 100% 29.06 in 2.5 mi SE 16.1 mph - N/A   Overcast
3:53 AM 39.0 °F 31.8 °F 39.0 °F 100% 29.06 in 3.0 mi SE 11.5 mph - N/A   Overcast
4:04 AM 39.2 °F 32.0 °F 39.2 °F 100% 29.06 in 1.8 mi SE 11.5 mph - N/A   Overcast
4:18 AM 39.2 °F 32.5 °F 39.2 °F 100% 29.06 in 3.0 mi ESE 10.4 mph - N/A   Overcast
4:29 AM 39.2 °F 31.6 °F 39.2 °F 100% 29.06 in 3.0 mi ESE 12.7 mph - N/A   Overcast
4:38 AM 39.2 °F 32.5 °F 39.2 °F 100% 29.06 in 1.8 mi ESE 10.4 mph - N/A   Overcast
4:53 AM 39.0 °F 31.4 °F 39.0 °F 100% 29.05 in 1.5 mi ESE 12.7 mph - N/A   Overcast
5:04 AM 39.2 °F 31.2 °F 39.2 °F 100% 29.05 in 2.5 mi ESE 13.8 mph - N/A   Overcast
5:37 AM 39.2 °F 32.0 °F 39.2 °F 100% 29.06 in 3.0 mi East 11.5 mph - N/A   Overcast
5:46 AM 39.2 °F 32.5 °F 39.2 °F 100% 29.06 in 3.0 mi East 10.4 mph - N/A   Overcast
5:53 AM 37.9 °F 30.0 °F 37.9 °F 100% 29.06 in 2.5 mi East 12.7 mph - N/A   Overcast
6:08 AM 39.2 °F 31.6 °F 39.2 °F 100% 29.05 in 4.0 mi East 12.7 mph - N/A   Overcast
6:53 AM 39.0 °F 31.4 °F 39.0 °F 100% 29.06 in 3.0 mi East 12.7 mph - N/A   Overcast
7:31 AM 39.2 °F 31.6 °F 39.2 °F 100% 29.05 in 2.5 mi East 12.7 mph - N/A   Overcast
7:39 AM 39.2 °F 31.2 °F 39.2 °F 100% 29.05 in 0.8 mi East 13.8 mph - N/A   Overcast
7:48 AM 39.2 °F 31.2 °F 39.2 °F 100% 29.04 in 0.5 mi East 13.8 mph - 0.00 in Fog , Rain Light Rain
7:53 AM 39.0 °F 30.6 °F 39.0 °F 100% 29.05 in 0.8 mi East 15.0 mph - 0.00 in Rain Light Rain
8:01 AM 39.2 °F 30.8 °F 39.2 °F 100% 29.04 in 1.8 mi East 15.0 mph - 0.00 in   Overcast
8:09 AM 39.2 °F 30.8 °F 39.2 °F 100% 29.05 in 2.0 mi East 15.0 mph - 0.00 in   Overcast
8:33 AM 39.2 °F 30.5 °F 39.2 °F 100% 29.04 in 1.5 mi East 16.1 mph - 0.00 in   Overcast
8:53 AM 39.9 °F 31.4 °F 39.9 °F 100% 29.05 in 2.0 mi East 16.1 mph - 0.00 in   Overcast
9:19 AM 39.2 °F 31.2 °F 39.2 °F 100% 29.05 in 1.2 mi East 13.8 mph - 0.00 in Rain Light Rain
9:35 AM 39.2 °F 31.2 °F 39.2 °F 100% 29.05 in 2.0 mi East 13.8 mph - 0.00 in   Overcast
9:46 AM 39.2 °F 30.2 °F 39.2 °F 100% 29.05 in 4.0 mi East 17.3 mph - 0.00 in Rain Light Rain
9:53 AM 39.9 °F 31.1 °F 39.9 °F 100% 29.05 in 4.0 mi East 17.3 mph - 0.00 in Rain Light Rain
10:35 AM 41.0 °F 32.8 °F 41.0 °F 100% 29.05 in 3.0 mi East 16.1 mph - 0.00 in   Overcast
10:53 AM 41.0 °F 33.1 °F 41.0 °F 100% 29.06 in 3.0 mi East 15.0 mph - 0.00 in   Overcast
11:16 AM 41.0 °F 33.1 °F 41.0 °F 100% 29.05 in 4.0 mi East 15.0 mph - 0.00 in Rain Light Rain
11:53 AM 42.1 °F 34.2 °F 42.1 °F 100% 29.06 in 4.0 mi East 16.1 mph - 0.00 in   Overcast
12:11 PM 41.0 °F 32.8 °F 41.0 °F 100% 29.07 in 2.5 mi East 16.1 mph - N/A   Overcast
12:30 PM 41.0 °F 33.1 °F 41.0 °F 100% 29.06 in 2.0 mi East 15.0 mph - 0.00 in Rain Light Rain
12:36 PM 41.0 °F 33.1 °F 41.0 °F 100% 29.06 in 3.0 mi East 15.0 mph - 0.00 in   Overcast
12:53 PM 42.1 °F 34.2 °F 41.0 °F 96% 29.08 in 4.0 mi East 16.1 mph - 0.00 in Rain Light Rain
1:09 PM 41.0 °F 33.5 °F 41.0 °F 100% 29.08 in 2.5 mi East 13.8 mph - 0.00 in Rain Light Rain
1:23 PM 41.0 °F 33.5 °F 41.0 °F 100% 29.08 in 3.0 mi East 13.8 mph - 0.00 in Rain Light Rain
1:53 PM 41.0 °F 33.5 °F 41.0 °F 100% 29.10 in 1.8 mi East 13.8 mph 21.9 mph 0.01 in Rain Light Rain
2:44 PM 42.8 °F 36.2 °F 42.8 °F 100% 29.10 in 3.0 mi East 12.7 mph - 0.02 in Rain Light Rain
2:53 PM 42.1 °F 35.2 °F 42.1 °F 100% 29.11 in 4.0 mi East 12.7 mph - 0.02 in Rain Light Rain
3:21 PM 44.6 °F 38.1 °F 44.6 °F 100% 29.10 in 1.8 mi ENE 13.8 mph - 0.01 in Rain Light Rain
3:33 PM 42.8 °F 35.8 °F 42.8 °F 100% 29.10 in 0.8 mi ENE 13.8 mph - 0.01 in Rain Light Rain
3:45 PM 44.6 °F 37.8 °F 44.6 °F 100% 29.12 in 0.5 mi East 15.0 mph - 0.01 in Fog , Rain Light Rain
3:53 PM 43.0 °F 36.0 °F 43.0 °F 100% 29.12 in 0.5 mi ENE 13.8 mph - 0.01 in Fog , Rain Light Rain
4:30 PM 44.6 °F 37.4 °F 44.6 °F 100% 29.12 in 1.0 mi East 16.1 mph - 0.00 in   Mist
4:53 PM 44.1 °F 37.1 °F 44.1 °F 100% 29.13 in 1.2 mi ENE 15.0 mph 23.0 mph 0.00 in   Overcast
5:30 PM 44.6 °F 37.4 °F 42.8 °F 93% 29.14 in 2.5 mi East 16.1 mph - N/A   Overcast
5:53 PM 43.0 °F 36.0 °F 43.0 °F 100% 29.15 in 2.0 mi ENE 13.8 mph - N/A   Overcast
6:09 PM 42.8 °F 36.2 °F 42.8 °F 100% 29.15 in 1.2 mi ENE 12.7 mph - N/A   Overcast
6:53 PM 42.1 °F 35.7 °F 42.1 °F 100% 29.17 in 0.8 mi ENE 11.5 mph - N/A   Overcast
7:16 PM 41.0 °F 33.5 °F 41.0 °F 100% 29.17 in 0.5 mi ENE 13.8 mph - N/A Fog Fog
7:53 PM 41.0 °F 33.9 °F 41.0 °F 100% 29.19 in 0.5 mi ENE 12.7 mph - N/A Fog Fog
8:53 PM 39.9 °F 32.1 °F 39.9 °F 100% 29.23 in 0.5 mi NE 13.8 mph - N/A Fog Fog
9:17 PM 41.0 °F 34.3 °F 41.0 °F 100% 29.23 in 1.0 mi ENE 11.5 mph - N/A   Mist
9:34 PM 39.2 °F 31.2 °F 39.2 °F 100% 29.23 in 0.8 mi NE 13.8 mph - N/A   Mist
9:48 PM 39.2 °F 32.0 °F 39.2 °F 100% 29.25 in 1.2 mi NE 11.5 mph - N/A   Overcast
9:53 PM 39.9 °F 32.5 °F 39.9 °F 100% 29.26 in 1.2 mi NE 12.7 mph - N/A   Overcast
10:09 PM 39.2 °F 31.6 °F 39.2 °F 100% 29.26 in 0.8 mi NE 12.7 mph - N/A   Mist
10:53 PM 39.9 °F 32.1 °F 39.9 °F 100% 29.29 in 1.8 mi NE 13.8 mph - N/A   Overcast
11:05 PM 39.2 °F 32.5 °F 39.2 °F 100% 29.30 in 2.5 mi NE 10.4 mph - N/A   Overcast
11:15 PM 39.2 °F 32.0 °F 39.2 °F 100% 29.29 in 3.0 mi NE 11.5 mph - N/A   Overcast
11:22 PM 39.2 °F 32.5 °F 39.2 °F 100% 29.30 in 3.0 mi NE 10.4 mph - N/A   Overcast
11:38 PM 39.2 °F 32.0 °F 39.2 °F 100% 29.31 in 3.0 mi NE 11.5 mph - N/A   Overcast
11:53 PM 39.9 °F 32.1 °F 39.9 °F 100% 29.32 in 3.0 mi NE 13.8 mph - N/A   Overcast